User: anonymous   Login
Location: Haliburton Scout Reserve
(45.0900°N, 78.3200°W)
Time: 11:30:34
(UTC-05:00)
Language:

PRISM - Orbit

View from above orbital plane
View from above orbital plane
View from above satellite
View from above satellite

Ground track
Ground track

The orbit data is extracted from the following two-line orbital elements,

1 33493U 09002B   23344.61177757  .00007627  00000-0  45601-3 0  9991
2 33493  98.2330  12.0043 0014556 167.0700 193.0904 15.11304423810347
Epoch (UTC): 10 December 2023 14:40:57
Eccentricity: 0.0014556
inclination: 98.2330°
perigee height: 522 km
apogee height: 542 km
right ascension of ascending node: 12.0043°
argument of perigee: 167.0700°
revolutions per day: 15.11304423
mean anomaly at epoch: 193.0904°
orbit number at epoch: 81034

The dashed part of the orbit path shows where the satellite is in the earth's shadow,  

DLR